Location: Paris
(48.6709°N, 2.3750°E)
Time: 16:40:50
(UTC+02:00)

QB50P2 - Pass Details

Date: 04 July 2022
Orbit: 590 x 605 km, 97.9° (Epoch: 18 August)

Event Time Altitude Azimuth Distance (km) Brightness Sun altitude
Rises 04:11:15 0° 5° (N) 2,865 ? -12.2°
Reaches altitude 10° 04:13:36 10° 355° (N) 1,959 ? -12.0°
Maximum altitude 04:17:21 31° 293° (WNW) 1,063 ? -11.7°
Enters shadow 04:20:21 14° 237° (WSW) 1,688 ? -11.4°
